Volver al catálogo

STARLINK-6347

ActivoComunicacionesVLEO
NORAD 57359·PAYLOAD·🇺🇸 United States

Lanzado Jul 16, 2023 desde Cape Canaveral Space Force Station

Loading…

Próximos Pases (próximas 24 horas)

TLE

ActualizadoSource: CelesTrak SupGP

Época: Sep 14, 2026, 14:17 UTC

1 57359C 23099AH  26257.59562500 -.00021274  00000+0 -77050-3 0  2572
2 57359  42.9995 254.9596 0000965 266.8511 272.9074 15.27591395    17

Sigue STARLINK-6347 en tiempo real con AllMySat

Download on the App Store